[[{"header":{"parameterUnit":"m.s-1","parameterCategory":1,"la1":30.2991,"la2":30.254,"lo1":-89.0895,"lo2":-89.0444,"dy":0.0017,"dx":0.0017,"nx":28,"ny":28,"refTime":"2025-08-22T09:00:00:Z","depth":0,"parameterNumber":2,"parameterNumberName":"U-component_of_WINDS"},"data":[0,0,0,0,0,0,0,0,0,0,0,0,0,0,0,0,0,0,0,0,0,0,0,0,0,0,0,0,0,0,0,0,0,0,0,0,0,0,0,0,0,0,0,0,0,0,0,0,0,0,0,0,0,0,0,0,0,0,2.5441,2.5441,0,2.5466,2.5466,2.5466,2.5422,2.5421,2.5419,2.5418,2.544,2.5442,2.5443,0,0,0,0,0,0,0,0,0,0,0,0,0,2.5352,2.5354,2.5441,2.5441,2.5442,2.5466,2.5466,2.5466,2.5422,2.5421,2.5419,2.5417,2.5439,2.5441,2.5444,0,0,0,0,0,0,0,0,0,0,0,0,0,2.5385,2.5354,2.5441,2.5423,2.5421,2.5466,2.5466,2.5466,2.5423,2.5421,2.5418,2.5416,2.5438,2.5441,2.5444,2.5506,0,0,2.5453,2.5454,0,0,0,0,0,0,0,0,2.5383,2.5388,2.5425,2.5424,2.5423,2.5439,2.5442,2.548,2.5423,2.5422,2.5418,2.5415,2.5441,2.5443,2.5453,2.5507,2.5508,2.5453,2.5455,2.5456,2.5457,0,0,0,0,0,0,0,2.5381,2.5387,2.5451,2.5426,2.5424,2.5412,2.5414,2.5449,2.5443,2.5422,2.5419,2.5423,2.544,2.545,2.5453,2.5508,2.5453,2.5456,2.5457,2.5459,2.5613,2.5615,0,0,0,0,0,0,2.5381,2.5385,2.545,2.5451,2.5397,2.5415,2.5418,2.5436,2.5443,2.5442,2.5424,2.542,2.5446,2.545,2.5454,2.5525,2.5456,2.5459,2.5461,2.561,2.5613,2.5616,0,0,0,0,0,0,2.538,2.5388,2.5449,2.5417,2.5424,2.5419,2.5439,2.5437,2.5447,2.5445,2.5443,2.5436,2.5445,2.5449,2.5493,2.5525,2.546,2.5463,2.5607,2.5611,2.5614,2.5669,0,0,0,0,0,0,2.5377,2.5387,2.5412,2.5418,2.5426,2.5489,2.5442,2.5439,2.5453,2.5448,2.5455,2.5455,2.5443,2.5489,2.5496,2.5528,2.5465,2.5604,2.5609,2.5613,2.5664,2.5674,2.5682,0,0,0,0,0,2.5374,2.5426,2.5413,2.5421,2.5457,2.5491,2.5495,2.5482,2.5456,2.5479,2.5478,2.5454,2.5521,2.5494,2.5501,2.5534,2.5602,2.5608,2.5613,2.566,2.5672,2.5682,0,0,0,0,0,0,2.5421,2.5426,2.5412,2.5468,2.548,2.5484,2.5513,2.5495,2.5514,2.5508,2.549,2.5492,2.5539,2.5541,2.5511,2.5594,2.5557,2.5564,2.559,2.5601,2.561,2.5607,2.5468,0,0,0,0,0,2.5439,2.5467,2.5469,2.5518,2.5525,2.5518,2.5533,2.5522,2.5532,2.5537,2.5538,2.5549,2.5572,2.5587,2.5608,2.5665,2.5665,2.5692,2.57,2.5708,2.5713,2.5741,2.5752,2.5633,2.5633,2.5633,0,0,2.5474,2.548,2.5499,2.5528,2.5535,2.5564,2.5522,2.5555,2.5575,2.5541,2.5582,2.5584,2.5594,2.5644,2.5666,2.5647,2.5747,2.5715,2.572,2.5722,2.5748,2.5759,2.5769,2.5636,2.5636,2.5635,0,0,2.5551,2.556,2.56,2.5609,2.5622,2.5617,2.5627,2.5634,2.5634,2.5675,2.565,2.5674,2.5715,2.5722,2.5732,2.5813,2.5791,2.5821,2.5866,2.5894,2.5903,2.5911,2.5938,2.5948,2.5827,2.5827,2.5827,0,2.5593,2.5636,2.5623,2.5657,2.5669,2.5642,2.5681,2.569,2.5709,2.5718,2.5697,2.5747,2.5752,2.5802,2.5822,2.5832,2.5841,2.5818,2.5903,2.5911,2.5919,2.5944,2.5954,2.583,2.583,2.5829,2.5829,0,2.5685,2.5715,2.5746,2.5765,2.5782,2.5818,2.581,2.5828,2.5816,2.5813,2.5854,2.586,2.5881,2.5893,2.5881,2.5941,2.5929,2.5906,2.5868,2.5934,2.5957,2.5966,2.5835,2.5833,2.5832,2.5832,0,0,2.5791,2.5804,2.5815,2.5823,2.5835,2.5857,2.5892,2.5914,2.5928,2.5943,2.597,2.6005,2.5984,2.5995,2.5984,2.6009,2.607,2.5983,2.5982,2.5996,2.6133,2.6148,2.616,2.6057,2.6058,2.606,2.6132,0,2.5866,2.5927,2.5917,2.5975,2.6001,2.5976,2.6006,2.6016,2.6015,2.6036,2.6034,2.6058,2.603,2.6036,2.606,2.6057,2.6096,2.6052,2.6079,2.608,2.6075,2.6172,2.6188,2.6256,2.6141,2.6142,2.6144,0,2.5961,2.598,2.6041,2.6048,2.6059,2.6086,2.6104,2.6126,2.6136,2.6133,2.6146,2.613,2.6163,2.6127,2.6171,2.6141,2.6152,2.6153,2.6155,2.6155,2.6114,2.6172,2.6277,2.6286,2.6158,2.6157,2.6156,0,2.6029,2.6069,2.6111,2.6119,2.6129,2.6148,2.6153,2.6161,2.6175,2.6191,2.6199,2.6219,2.6229,2.6244,2.6233,2.6208,2.6278,2.6242,2.6275,2.6275,2.6288,2.6287,2.6394,2.63,2.63,2.63,2.63,0,2.6113,2.615,2.6141,2.6166,2.6207,2.6195,2.6236,2.6237,2.6245,2.6269,2.6249,2.6272,2.6258,2.6279,2.6271,2.6308,2.6313,2.631,2.6307,2.631,2.631,2.6315,2.6309,2.6302,2.6302,2.6301,2.6301,0,2.6194,2.619,2.6233,2.6239,2.6242,2.6271,2.6276,2.6299,2.6296,2.6327,2.6333,2.6329,2.6352,2.6344,2.637,2.6365,2.641,2.6403,2.6407,2.6404,2.6436,2.6432,2.6548,2.6561,2.6461,2.6462,2.6463,0,2.6246,2.6274,2.6284,2.6299,2.6306,2.6331,2.6344,2.6334,2.6348,2.6362,2.6383,2.6405,2.6422,2.6461,2.6459,2.6479,2.6469,2.6509,2.6472,2.6474,2.6467,2.6464,2.6466,2.6515,2.6516,2.6517,2.6518,0,2.6338,2.6334,2.6355,2.6376,2.6393,2.6408,2.6422,2.6435,2.6425,2.6442,2.6467,2.648,2.6507,2.6528,2.6546,2.6549,2.6531,2.653,2.6538,2.654,2.654,2.6538,2.6424,2.6526,2.6526,2.6525,2.6525,2.6524,2.6404,2.6427,2.6438,2.6462,2.6471,2.6484,2.6505,2.6506,2.6526,2.6547,2.654,2.6568,2.6577,2.6598,2.6604,2.6625,2.6609,2.6622,2.6624,2.6627,2.663,2.654,2.6628,2.6628,2.6628,2.6628,2.6627,0,2.6492,2.6498,2.652,2.654,2.6558,2.6542,2.6556,2.6572,2.6597,2.6608,2.6625,2.6653,2.6674,2.6674,2.6693,2.671,2.6702,2.6715,2.6712,2.6713,2.6644,2.6634,2.6721,2.6721,2.6721,2.6721,2.6721,2.6721,2.654,2.6578,2.6576,2.6618,2.6624,2.6651,2.666,2.6672,2.668,2.6712,2.673,2.673,2.6736,2.6756,2.6774,2.6773,2.678,2.6796,2.6792,2.6727,2.6718,2.6709,2.6699,2.6798,2.6798,2.6859,2.6859,2.686]},{"header":{"parameterUnit":"m.s-1","parameterCategory":1,"la1":30.2991,"la2":30.254,"lo1":-89.0895,"lo2":-89.0444,"dy":0.0017,"dx":0.0017,"nx":28,"ny":28,"refTime":"2025-08-22T09:00:00:Z","depth":0,"parameterNumber":3,"parameterNumberName":"V-component_of_WINDS"},"data":[0,0,0,0,0,0,0,0,0,0,0,0,0,0,0,0,0,0,0,0,0,0,0,0,0,0,0,0,0,0,0,0,0,0,0,0,0,0,0,0,0,0,0,0,0,0,0,0,0,0,0,0,0,0,0,0,0,0,2.3578,2.3578,0,2.3523,2.3523,2.3522,2.3469,2.3469,2.3468,2.3467,2.341,2.3409,2.3408,0,0,0,0,0,0,0,0,0,0,0,0,0,2.3636,2.3635,2.3578,2.3578,2.3577,2.3524,2.3523,2.3522,2.3469,2.3469,2.3468,2.3467,2.341,2.3409,2.3408,0,0,0,0,0,0,0,0,0,0,0,0,0,2.3599,2.3635,2.3578,2.3544,2.3541,2.3524,2.3523,2.3522,2.347,2.3469,2.3467,2.3467,2.3411,2.3409,2.3408,2.342,0,0,2.3404,2.3404,0,0,0,0,0,0,0,0,2.3601,2.3597,2.355,2.3547,2.3543,2.3502,2.3522,2.3488,2.347,2.3497,2.3467,2.3466,2.3442,2.3438,2.3429,2.3418,2.3415,2.3404,2.3403,2.3403,2.3402,0,0,0,0,0,0,0,2.3604,2.3599,2.3557,2.3549,2.3545,2.3531,2.3525,2.3515,2.3475,2.3494,2.349,2.3484,2.3439,2.3431,2.3428,2.3414,2.3404,2.3403,2.3402,2.3401,2.3407,2.3408,0,0,0,0,0,0,2.3612,2.3601,2.3558,2.3555,2.357,2.3531,2.3524,2.3516,2.3475,2.3468,2.3485,2.3482,2.3434,2.3429,2.3426,2.3435,2.3403,2.3401,2.3401,2.3406,2.3407,2.3408,0,0,0,0,0,0,2.3613,2.3608,2.3561,2.3577,2.357,2.3531,2.3523,2.3516,2.3507,2.3469,2.3461,2.3484,2.3433,2.3427,2.3421,2.3432,2.3401,2.34,2.3405,2.3406,2.3408,2.3455,0,0,0,0,0,0,2.3615,2.3609,2.3614,2.3578,2.3569,2.3558,2.3524,2.3515,2.3505,2.35,2.3466,2.3459,2.3432,2.3424,2.342,2.343,2.3399,2.3404,2.3406,2.3407,2.3453,2.3458,2.3463,0,0,0,0,0,2.3617,2.363,2.3614,2.3609,2.3574,2.3559,2.3554,2.3523,2.3506,2.351,2.3485,2.346,2.3432,2.3424,2.3419,2.3429,2.3403,2.3405,2.3407,2.345,2.3457,2.3463,0,0,0,0,0,0,2.3668,2.3624,2.3607,2.3608,2.3588,2.355,2.3554,2.3531,2.3515,2.3511,2.3472,2.3465,2.3463,2.3445,2.3437,2.3437,2.3414,2.3415,2.3448,2.3454,2.346,2.3463,2.3397,0,0,0,0,0,2.368,2.3671,2.3633,2.3638,2.3629,2.3593,2.3585,2.3563,2.354,2.3531,2.3506,2.3484,2.347,2.3461,2.3447,2.345,2.3441,2.3455,2.346,2.3464,2.3465,2.3463,2.3468,2.3415,2.3415,2.3415,0,0,2.3703,2.3678,2.3675,2.3648,2.3629,2.362,2.3586,2.3579,2.3571,2.353,2.3522,2.3503,2.3476,2.3474,2.3472,2.3459,2.3478,2.3467,2.3471,2.3469,2.3466,2.3471,2.3476,2.3417,2.3416,2.3416,0,0,2.374,2.3722,2.3723,2.3705,2.3677,2.3653,2.3654,2.3619,2.3605,2.3596,2.3564,2.3555,2.3532,2.3514,2.3501,2.3531,2.3506,2.3528,2.3554,2.3553,2.3557,2.356,2.3569,2.3572,2.3529,2.3529,2.3529,0,2.3773,2.3759,2.3726,2.372,2.3708,2.367,2.3669,2.3654,2.3623,2.3615,2.3601,2.3571,2.355,2.3543,2.355,2.3542,2.354,2.353,2.3559,2.3562,2.3565,2.3572,2.3576,2.3532,2.3531,2.3531,2.3531,0,2.3799,2.3789,2.3793,2.3764,2.3753,2.375,2.3715,2.3708,2.3686,2.3664,2.3655,2.3629,2.3607,2.3604,2.3583,2.3593,2.3585,2.3566,2.3542,2.3573,2.3579,2.3582,2.3535,2.3534,2.3534,2.3533,0,0,2.3866,2.3818,2.382,2.3805,2.3772,2.3763,2.3758,2.3737,2.373,2.371,2.3704,2.3685,2.3666,2.3652,2.3629,2.3628,2.3651,2.3609,2.3607,2.3615,2.3657,2.367,2.3674,2.3635,2.3635,2.3636,2.3658,0,2.3896,2.3884,2.3854,2.3852,2.3841,2.3805,2.38,2.3779,2.3757,2.3745,2.3721,2.3708,2.3686,2.3676,2.3674,2.3649,2.3658,2.3647,2.3627,2.3626,2.3632,2.3678,2.3692,2.3714,2.3661,2.3661,2.3662,0,2.3929,2.3911,2.3907,2.3873,2.3867,2.3864,2.3841,2.383,2.3804,2.3789,2.3773,2.3747,2.3738,2.3717,2.3703,2.3696,2.3686,2.3672,2.3672,2.3668,2.3644,2.3672,2.3721,2.3724,2.3666,2.3665,2.3665,0,2.3976,2.3951,2.3944,2.3933,2.3894,2.3891,2.3875,2.3848,2.3837,2.3817,2.3809,2.3789,2.3777,2.3761,2.373,2.3718,2.3718,2.3695,2.3704,2.3704,2.3704,2.3704,2.375,2.3701,2.3701,2.3701,2.3701,0,2.4011,2.401,2.3964,2.3961,2.3957,2.3923,2.392,2.39,2.3877,2.3867,2.3835,2.3827,2.3787,2.3774,2.3749,2.374,2.3736,2.3722,2.3715,2.3723,2.3725,2.3715,2.3711,2.3702,2.3702,2.3702,2.3702,0,2.4062,2.4032,2.4022,2.3985,2.3976,2.3975,2.3943,2.3937,2.3914,2.3902,2.3898,2.3861,2.3844,2.3811,2.3785,2.3768,2.3764,2.3753,2.3772,2.3768,2.3777,2.3776,2.3816,2.3819,2.3771,2.3772,2.3772,0,2.4085,2.4083,2.4046,2.4038,2.4022,2.4009,2.3997,2.3963,2.3952,2.3922,2.3919,2.3899,2.3881,2.3855,2.3825,2.3804,2.3792,2.3807,2.3788,2.3796,2.3789,2.3789,2.3787,2.3811,2.3812,2.3812,2.3813,0,2.4129,2.4114,2.4099,2.4078,2.4065,2.4047,2.4027,2.4021,2.3982,2.3971,2.3953,2.3939,2.3912,2.3892,2.3866,2.3848,2.3823,2.3819,2.382,2.3827,2.3838,2.383,2.3782,2.3818,2.3818,2.3817,2.3817,2.3817,2.4165,2.4161,2.4134,2.4117,2.4099,2.4081,2.4073,2.4049,2.4033,2.4008,2.3989,2.3972,2.3945,2.3908,2.3891,2.3876,2.3865,2.3866,2.3866,2.3866,2.3869,2.3842,2.3872,2.3872,2.3871,2.3871,2.3871,0,2.4206,2.4187,2.4172,2.4145,2.4131,2.4111,2.4087,2.4077,2.4062,2.4039,2.4022,2.4,2.398,2.3949,2.3927,2.3921,2.3908,2.3915,2.3914,2.391,2.3881,2.3882,2.3925,2.3925,2.3925,2.3925,2.3925,2.3925,2.4225,2.4216,2.4198,2.4179,2.416,2.4143,2.4131,2.4113,2.4095,2.4072,2.4055,2.4035,2.4008,2.3983,2.3964,2.3955,2.3947,2.3957,2.3944,2.3918,2.3912,2.3908,2.3908,2.3956,2.3956,2.3974,2.3974,2.3975]}]]